Monticello, KY

6:00 AM EST on December 06, 2019 (GMT -0500)
Wayne County

Weather History for KEKQ - September, 2019

Change the Weather History Date:

Friday, September 20, 2019

  Actual Average Record
Temperature  
Mean Temperature 74 °F -  
Max Temperature 86 °F 79 °F 93 °F (2018)
Min Temperature 61 °F 57 °F 41 °F (1956)
Cooling Degree Days 9    
Growing Degree Days 24 (Base 50)    
Moisture  
Dew Point 60 °F    
Average Humidity 67    
Maximum Humidity 96    
Minimum Humidity 43    
Precipitation  
Precipitation 0.00 in - - ()
Sea Level Pressure  
Sea Level Pressure 30.21 in    
Wind  
Wind Speed 7 mph (North)    
Max Wind Speed 16 mph    
Max Gust Speed 21 mph    
Visibility 10 miles    
Events      
Averages and records for this station are not official NWS values.
T = Trace of Precipitation, MM = Missing Value Source: NWS Daily Summary

Daily Weather History Graph

Daily Weather History Graph

Search for Another Location

Airport or City:

Astronomy

Sep. 20, 2019 Rise Set
Actual Time 6:25 AM CDT 6:39 PM CDT
Civil Twilight 5:59 AM CDT 7:05 PM CDT
Nautical Twilight 5:29 AM CDT 7:35 PM CDT
Astronomical Twilight 4:58 AM CDT 8:06 PM CDT
Moon 10:37 PM CDT (9/20) 12:20 PM CDT (9/20)
Length of Visible Light 13h 05m
Length of Day
12h 14m
Waning Gibbous, 65% of the Moon is Illuminated
Sep 20
Waning Gibbous
Sep 21
Last Quarter
Sep 28
New
Oct 5
First Quarter
Oct 13
Full

Hourly Weather History & Observations

Time (CDT) Temp. Heat Index Dew Point Humidity Pressure Visibility Wind Dir Wind Speed Gust Speed Precip Events Conditions
12:56 AM 70.0 °F - 61.0 °F 73% 30.16 in 10.0 mi NE 6.9 mph - N/A   Clear
1:56 AM 70.0 °F - 61.0 °F 73% 30.16 in 10.0 mi East 6.9 mph - N/A   Clear
2:56 AM 69.1 °F - 60.1 °F 73% 30.17 in 10.0 mi ENE 6.9 mph - N/A   Clear
3:56 AM 69.1 °F - 59.0 °F 70% 30.19 in 10.0 mi Variable 6.9 mph - N/A   Scattered Clouds
4:56 AM 66.9 °F - 59.0 °F 76% 30.20 in 10.0 mi NE 5.8 mph - N/A   Partly Cloudy
5:56 AM 63.0 °F - 57.9 °F 84% 30.22 in 10.0 mi NE 8.1 mph - N/A   Clear
6:56 AM 64.9 °F - 57.9 °F 78% 30.23 in 10.0 mi ENE 6.9 mph - N/A   Clear
7:56 AM 70.0 °F - 57.9 °F 65% 30.25 in 10.0 mi NE 6.9 mph - N/A   Mostly Cloudy
8:56 AM 71.1 °F - 59.0 °F 66% 30.26 in 10.0 mi NE 5.8 mph - N/A   Overcast
9:56 AM 77.0 °F - 59.0 °F 54% 30.26 in 10.0 mi Variable 4.6 mph 18.4 mph N/A   Partly Cloudy
10:56 AM 79.0 °F - 57.9 °F 48% 30.26 in 10.0 mi West 16.1 mph - N/A   Overcast
11:56 AM 82.0 °F 82.4 °F 60.1 °F 47% 30.24 in 10.0 mi South 9.2 mph 20.7 mph N/A   Scattered Clouds
12:56 PM 82.9 °F 83.2 °F 60.1 °F 46% 30.23 in 10.0 mi West 12.7 mph 19.6 mph N/A   Scattered Clouds
1:56 PM 84.9 °F 84.8 °F 60.1 °F 43% 30.21 in 9.0 mi South 9.2 mph 20.7 mph N/A   Mostly Cloudy
2:56 PM 84.9 °F 85.0 °F 61.0 °F 44% 30.19 in 10.0 mi North - - N/A   Scattered Clouds
3:56 PM 86.0 °F 86.3 °F 62.1 °F 44% 30.18 in 10.0 mi West 16.1 mph - N/A   Clear
4:56 PM 86.0 °F 86.3 °F 62.1 °F 44% 30.17 in 10.0 mi WNW 3.5 mph - N/A   Clear
5:56 PM 82.9 °F 83.7 °F 62.1 °F 49% - 10.0 mi Variable 5.8 mph - N/A   Clear
6:56 PM 72.0 °F - 62.1 °F 71% 30.19 in 10.0 mi Calm Calm - N/A   Clear
7:56 PM 66.9 °F - 61.0 °F 81% 30.20 in 10.0 mi NE 9.2 mph - N/A   Clear
8:56 PM 64.0 °F - 61.0 °F 90% 30.23 in 10.0 mi North 9.2 mph - N/A   Clear
9:56 PM 64.0 °F - 61.0 °F 90% 30.24 in 10.0 mi West 10.4 mph - N/A   Clear
10:56 PM 62.1 °F - 61.0 °F 96% 30.25 in 10.0 mi West 9.2 mph - N/A   Clear
11:56 PM 61.0 °F - 59.0 °F 93% 30.24 in 10.0 mi Calm Calm - N/A   Clear